Latest Coastal Weather Observations for Esperance Harbour

IDW60701

Issued at 2:02 am WST Monday 31 August 2015 (issued every 10 minutes, with the page automatically refreshed every 10 minutes)

About coastal observations | Map of coastal stations | Coastal observations for WA | Marine services | Other Formats
Station Details ID: 109504 Name: ESPERANCE NTC AWS Lat: -33.87 Lon: 121.90 Height: 0.0 m
Data from the previous 72 hours. | See also: Recent months for locations in Western Australia
Date/Time
WST
Temp

°C
Wind Pressure Rain
since 9am
mm
Weather Cloud Vis
km
Sea
Height
m
Swell
Dir
 
Speed
knots
Gust
knots
hPa Trend Height
m
Period
s
Dir
31/02:00am 11.6 - - - 1019.1 - - - - - - - - -
31/01:30am 11.9 - - - 1019.3 - - - - - - - - -
31/01:00am 12.2 - - - 1019.6 - - - - - - - - -
31/12:30am 12.3 - - - 1019.9 - - - - - - - - -
31/12:00am 12.3 - - - 1019.8 - - - - - - - - -
 
Date/Time
WST
Temp

°C
Wind Pressure Rain
since 9am
mm
Weather Cloud Vis
km
Sea
Height
m
Swell
Dir
 
Speed
knots
Gust
knots
hPa Trend Height
m
Period
s
Dir
30/11:30pm 12.5 - - - 1020.3 - - - - - - - - -
30/11:00pm 14.2 - - - 1020.2 - - - - - - - - -
30/10:30pm 14.5 - - - 1020.2 - - - - - - - - -
30/10:00pm 14.6 - - - 1020.3 - - - - - - - - -
30/09:30pm 14.6 - - - 1020.6 - - - - - - - - -
30/09:00pm 14.8 - - - 1020.8 - - - - - - - - -
30/08:30pm 14.7 - - - 1020.8 - - - - - - - - -
30/08:00pm 14.7 - - - 1020.7 - - - - - - - - -
30/07:30pm 14.8 - - - 1020.6 - - - - - - - - -
30/07:00pm 14.9 - - - 1020.3 - - - - - - - - -
30/06:30pm 15.1 - - - 1020.1 - - - - - - - - -
30/06:00pm 15.1 - - - 1019.7 - - - - - - - - -
30/05:30pm 15.2 - - - 1019.5 - - - - - - - - -
30/05:00pm 15.4 - - - 1019.2 - - - - - - - - -
30/04:30pm 15.6 - - - 1019.0 - - - - - - - - -
30/04:00pm 15.6 - - - 1018.7 - - - - - - - - -
30/03:30pm 16.2 - - - 1018.4 - - - - - - - - -
30/03:00pm 16.4 - - - 1018.1 - - - - - - - - -
30/02:30pm 16.7 - - - 1017.8 - - - - - - - - -
30/02:00pm 16.9 - - - 1017.6 - - - - - - - - -
30/01:30pm 16.6 - - - 1017.3 - - - - - - - - -
30/01:00pm 16.4 - - - 1017.1 - - - - - - - - -
30/12:30pm 17.2 - - - 1017.2 - - - - - - - - -
30/12:00pm 16.8 - - - 1017.3 - - - - - - - - -
30/11:30am 17.1 - - - 1017.2 - - - - - - - - -
30/11:00am 16.9 - - - 1016.8 - - - - - - - - -
30/10:30am 16.9 - - - 1016.7 - - - - - - - - -
30/10:00am 16.7 - - - 1016.5 - - - - - - - - -
30/09:30am 17.4 - - - 1016.1 - - - - - - - - -
30/09:00am 16.4 - - - 1015.8 - - - - - - - - -
30/08:30am 15.9 - - - 1015.6 - - - - - - - - -
30/08:00am 14.8 - - - 1015.3 - - - - - - - - -
30/07:30am 13.7 - - - 1015.1 - - - - - - - - -
30/07:00am 13.5 - - - 1014.4 - - - - - - - - -
30/06:30am 13.3 - - - 1013.9 - - - - - - - - -
30/06:00am 13.1 - - - 1013.3 - - - - - - - - -
30/05:30am 13.4 - - - 1013.1 - - - - - - - - -
30/05:00am 13.8 - - - 1012.9 - - - - - - - - -
30/04:30am 14.5 - - - 1012.5 - - - - - - - - -
30/04:00am 15.0 - - - 1012.4 - - - - - - - - -
30/03:30am 15.3 - - - 1012.1 - - - - - - - - -
30/03:00am 15.5 - - - 1012.2 - - - - - - - - -
30/02:30am 15.8 - - - 1012.2 - - - - - - - - -
30/02:00am 16.0 - - - 1012.1 - - - - - - - - -
30/01:30am 16.1 - - - 1012.2 - - - - - - - - -
30/01:00am 16.6 - - - 1012.1 - - - - - - - - -
30/12:30am 17.1 - - - 1012.3 - - - - - - - - -
30/12:00am 17.4 - - - 1012.1 - - - - - - - - -
 
Date/Time
WST
Temp

°C
Wind Pressure Rain
since 9am
mm
Weather Cloud Vis
km
Sea
Height
m
Swell
Dir
 
Speed
knots
Gust
knots
hPa Trend Height
m
Period
s
Dir
29/11:30pm 17.7 - - - 1012.2 - - - - - - - - -
29/11:00pm 18.2 - - - 1012.2 - - - - - - - - -
29/10:30pm 19.2 - - - 1012.2 - - - - - - - - -
29/10:00pm 19.1 - - - 1012.2 - - - - - - - - -
29/09:30pm 20.4 - - - 1012.6 - - - - - - - - -
29/09:00pm 21.0 - - - 1012.6 - - - - - - - - -
29/08:30pm 20.9 - - - 1012.4 - - - - - - - - -
29/08:00pm 22.0 - - - 1011.8 - - - - - - - - -
29/07:30pm 22.6 - - - 1011.3 - - - - - - - - -
29/07:00pm 22.1 - - - 1010.8 - - - - - - - - -
29/06:30pm 22.9 - - - 1010.9 - - - - - - - - -
29/06:00pm 23.1 - - - 1010.0 - - - - - - - - -
29/05:30pm 22.0 - - - 1009.3 - - - - - - - - -
29/05:00pm 23.2 - - - 1009.2 - - - - - - - - -
29/04:30pm 22.5 - - - 1009.3 - - - - - - - - -
29/04:00pm 23.9 - - - 1009.5 - - - - - - - - -
29/03:30pm 24.4 - - - 1009.6 - - - - - - - - -
29/03:00pm 23.8 - - - 1009.8 - - - - - - - - -
29/02:30pm 24.0 - - - 1009.9 - - - - - - - - -
29/02:00pm 24.5 - - - 1010.2 - - - - - - - - -
29/01:30pm 24.4 - - - 1010.7 - - - - - - - - -
29/01:00pm 23.3 - - - 1011.2 - - - - - - - - -
29/12:30pm 22.6 - - - 1011.7 - - - - - - - - -
29/12:00pm 21.9 - - - 1012.4 - - - - - - - - -
29/11:30am 21.1 - - - 1012.9 - - - - - - - - -
29/11:00am 19.9 - - - 1013.4 - - - - - - - - -
29/10:30am 19.5 - - - 1013.8 - - - - - - - - -
29/10:00am 17.9 - - - 1014.1 - - - - - - - - -
29/09:30am 17.1 - - - 1014.4 - - - - - - - - -
29/09:00am 15.7 - - - 1015.0 - - - - - - - - -
29/08:30am 15.5 - - - 1015.3 - - - - - - - - -
29/08:00am 14.6 - - - 1015.4 - - - - - - - - -
29/07:30am 14.2 - - - 1015.2 - - - - - - - - -
29/07:00am 13.8 - - - 1015.1 - - - - - - - - -
29/06:30am 13.3 - - - 1014.7 - - - - - - - - -
29/06:00am 13.5 - - - 1014.5 - - - - - - - - -
29/05:30am 13.4 - - - 1014.3 - - - - - - - - -
29/05:00am 13.6 - - - 1014.2 - - - - - - - - -
29/04:30am 13.8 - - - 1014.2 - - - - - - - - -
29/04:00am 13.7 - - - 1014.5 - - - - - - - - -
29/03:30am 14.3 - - - 1014.5 - - - - - - - - -
29/03:00am 13.7 - - - 1014.6 - - - - - - - - -
29/02:30am 15.1 - - - 1014.8 - - - - - - - - -
29/02:00am 15.4 - - - 1014.9 - - - - - - - - -
29/01:30am 15.5 - - - 1015.3 - - - - - - - - -
29/01:00am 15.9 - - - 1015.3 - - - - - - - - -
29/12:30am 16.4 - - - 1015.4 - - - - - - - - -
29/12:00am 16.7 - - - 1015.5 - - - - - - - - -
 
Date/Time
WST
Temp

°C
Wind Pressure Rain
since 9am
mm
Weather Cloud Vis
km
Sea
Height
m
Swell
Dir
 
Speed
knots
Gust
knots
hPa Trend Height
m
Period
s
Dir
28/11:30pm 16.9 - - - 1015.6 - - - - - - - - -
28/11:00pm 16.9 - - - 1015.8 - - - - - - - - -
28/10:30pm 16.5 - - - 1016.3 - - - - - - - - -
28/10:00pm 16.3 - - - 1016.3 - - - - - - - - -
28/09:30pm 16.3 - - - 1016.5 - - - - - - - - -
28/09:00pm 16.8 - - - 1016.5 - - - - - - - - -
28/08:30pm 17.4 - - - 1016.2 - - - - - - - - -
28/08:00pm 17.6 - - - 1015.9 - - - - - - - - -
28/07:30pm 16.5 - - - 1015.7 - - - - - - - - -
28/07:00pm 16.9 - - - 1015.6 - - - - - - - - -
28/06:30pm 17.6 - - - 1015.6 - - - - - - - - -
28/06:00pm 18.7 - - - 1015.4 - - - - - - - - -
28/05:30pm 19.7 - - - 1015.2 - - - - - - - - -
28/05:00pm 20.5 - - - 1014.9 - - - - - - - - -
28/04:30pm 19.9 - - - 1014.9 - - - - - - - - -
28/04:00pm 21.0 - - - 1015.0 - - - - - - - - -
28/03:30pm 21.2 - - - 1015.1 - - - - - - - - -
28/03:00pm 20.9 - - - 1015.2 - - - - - - - - -
28/02:30pm 20.4 - - - 1015.5 - - - - - - - - -
28/02:00pm 20.2 - - - 1015.8 - - - - - - - - -
28/01:30pm 19.4 - - - 1016.1 - - - - - - - - -
28/01:00pm 19.7 - - - 1016.5 - - - - - - - - -
28/12:30pm 18.9 - - - 1016.9 - - - - - - - - -
28/12:00pm 18.3 - - - 1017.7 - - - - - - - - -
28/11:30am 17.3 - - - 1018.3 - - - - - - - - -
28/11:00am 16.7 - - - 1018.6 - - - - - - - - -
28/10:30am 16.1 - - - 1019.1 - - - - - - - - -
28/10:00am 15.8 - - - 1019.4 - - - - - - - - -
28/09:30am 14.4 - - - 1019.9 - - - - - - - - -
28/09:00am 13.9 - - - 1019.8 - - - - - - - - -
28/08:30am 12.7 - - - 1020.3 - - - - - - - - -
28/08:00am 12.5 - - - 1020.5 - - - - - - - - -
28/07:30am 12.6 - - - 1020.4 - - - - - - - - -
28/07:00am 12.3 - - - 1020.4 - - - - - - - - -
28/06:30am 12.2 - - - 1020.1 - - - - - - - - -
28/06:00am 12.2 - - - 1019.9 - - - - - - - - -
28/05:30am 11.9 - - - 1019.8 - - - - - - - - -
28/05:00am 11.8 - - - 1019.7 - - - - - - - - -
28/04:30am 11.7 - - - 1019.7 - - - - - - - - -
28/04:00am 11.9 - - - 1019.9 - - - - - - - - -
28/03:30am 11.5 - - - 1020.0 - - - - - - - - -
28/03:00am 11.6 - - - 1020.2 - - - - - - - - -
28/02:30am 12.0 - - - 1020.6 - - - - - - - - -

Other Formats:

Comma delimited format used in spreadsheet applications
http://www.bom.gov.au/fwo/IDW60701/IDW60701.95648.axf

JavaScript Object Notation format (JSON) in row-major order
http://www.bom.gov.au/fwo/IDW60701/IDW60701.95648.json